This is the latest recevied weather packets stored in our database for station/object CW79215. If no packets are shown the sender has not sent any weather packets the latest 10 day(s).
| Time | Temp. | Humidity | Pressure | Rain* | Wind** | Luminosity | Snow |
|---|---|---|---|---|---|---|---|
| 1788177931 | 23.89° C | 41% | 1028.4 hPa | - | - | - | - |
| 1788177031 | 23.89° C | 42% | 1028.6 hPa | - | - | - | - |
| 1788176130 | 22.78° C | 45% | 1028.6 hPa | - | - | - | - |
| 1788175230 | 22.22° C | 47% | 1028.6 hPa | - | - | - | - |
| 1788174330 | 22.22° C | 48% | 1028.7 hPa | - | - | - | - |
| 1788173430 | 22.78° C | 46% | 1028.6 hPa | - | - | - | - |
| 1788172529 | 21.67° C | 47% | 1028.7 hPa | - | - | - | - |
| 1788171629 | 22.22° C | 47% | 1028.8 hPa | - | - | - | - |
| 1788170729 | 21.11° C | 49% | 1029 hPa | - | - | - | - |
| 1788169829 | 22.78° C | 47% | 1029 hPa | - | - | - | - |
| 1788168929 | 22.78° C | 48% | 1029 hPa | - | - | - | - |
| 1788168029 | 21.67° C | 50% | 1028.9 hPa | - | - | - | - |
| 1788167129 | 21.67° C | 52% | 1029 hPa | - | - | - | - |
| 1788166229 | 22.22° C | 53% | 1028.9 hPa | - | - | - | - |
| 1788165332 | 21.67° C | 53% | 1028.8 hPa | - | - | - | - |
| 1788164432 | 21.67° C | 55% | 1028.5 hPa | - | - | - | - |
| 1788163532 | 21.11° C | 58% | 1028.6 hPa | - | - | - | - |
| 1788162631 | 21.67° C | 56% | 1028.5 hPa | - | - | - | - |
| 1788161731 | 20° C | 63% | 1028.4 hPa | - | - | - | - |
| 1788160831 | 20.56° C | 64% | 1028.2 hPa | - | - | - | - |
| 1788159931 | 20.56° C | 65% | 1028.3 hPa | - | - | - | - |
| 1788159031 | 17.22° C | 77% | 1028.3 hPa | - | - | - | - |
| 1788158131 | 16.67° C | 77% | 1028.2 hPa | - | - | - | - |
| 1788157231 | 17.22° C | 79% | 1028 hPa | - | - | - | - |
| 1788156330 | 17.22° C | 80% | 1027.9 hPa | - | - | - | - |
* Rain since midnight (hover to see other rain measurements)
** Current wind speed in m/s (hover to see current wind gust speed)